This is the latest recevied weather packets stored in our database for station/object AA7VG. If no packets are shown the sender has not sent any weather packets the latest 10 day(s).
| Time | Temp. | Humidity | Pressure | Rain* | Wind** | Luminosity | Snow |
|---|---|---|---|---|---|---|---|
| 1778039748 | 2.78° C | 47% | 1018.4 hPa | 0 mm | - | - | - |
| 1778039444 | 2.22° C | 49% | 1018.3 hPa | 0 mm | - | - | - |
| 1778039142 | 2.22° C | 49% | 1018.4 hPa | 0 mm | - | - | - |
| 1778038838 | 2.78° C | 48% | 1018.2 hPa | 0 mm | - | - | - |
| 1778038536 | 2.78° C | 46% | 1018.2 hPa | 0 mm | - | - | - |
| 1778038233 | 2.78° C | 46% | 1018 hPa | 0 mm | - | - | - |
| 1778037930 | 3.33° C | 45% | 1018.2 hPa | 0 mm | - | - | - |
| 1778037627 | 3.33° C | 45% | 1017.8 hPa | 0 mm | - | - | - |
| 1778037325 | 3.33° C | 44% | 1017.7 hPa | 0 mm | - | - | - |
| 1778037021 | 3.89° C | 44% | 1018 hPa | 0 mm | - | - | - |
| 1778036719 | 3.89° C | 43% | 1017.6 hPa | 0 mm | - | - | - |
| 1778036416 | 3.89° C | 43% | 1017.8 hPa | 0 mm | - | - | - |
| 1778036113 | 4.44° C | 43% | 1017.5 hPa | 0 mm | - | - | - |
| 1778035809 | 4.44° C | 41% | 1017.5 hPa | 0 mm | - | - | - |
| 1778035506 | 4.44° C | 42% | 1017.2 hPa | 0 mm | - | - | - |
| 1778035202 | 4.44° C | 44% | 1017.5 hPa | 0 mm | - | - | - |
| 1778034899 | 4.44° C | 46% | 1016.8 hPa | 0 mm | - | - | - |
| 1778034595 | 5° C | 45% | 1016.8 hPa | 0 mm | - | - | - |
| 1778034294 | 5° C | 45% | 1016.9 hPa | 0 mm | - | - | - |
| 1778033991 | 5° C | 45% | 1016.6 hPa | 0 mm | - | - | - |
| 1778033688 | 5.56° C | 44% | 1016.8 hPa | 0 mm | - | - | - |
| 1778033385 | 5.56° C | 43% | 1016.7 hPa | 0 mm | - | - | - |
| 1778033083 | 5.56° C | 41% | 1016.9 hPa | 0 mm | - | - | - |
| 1778032780 | 6.11° C | 42% | 1016.6 hPa | 0 mm | - | - | - |
| 1778032477 | 6.11° C | 41% | 1016.6 hPa | 0 mm | - | - | - |
* Rain latest hour (hover to see other rain measurements)
** Current wind speed in m/s (hover to see current wind gust speed)